This demonstration page uses our WeatherBlox Daily Observations layout. Learn more.

Left ArrowRight Arrow

36.17497, -115.13722

Hourly Observations for April 25, 2020

Temp ( °F °C ) Dew Point ( °F °C ) Humidity (%) Winds ( mph kmh ) Pressure ( in mb ) Visibility ( mi km ) Precip ( " mm )
12:53 am 00:53 Clear 71 21.7 32 undefined 24 24 WNW 7 11 29.99 1016 10 16 N/A
1:53 am 01:53 Clear 69 20.6 31 -0.6 24 24 NW 7 11 30.00 1016 10 16 N/A
2:53 am 02:53 Clear 68 20 31 -0.6 25 25 N N/A 30.01 1016 10 16 N/A
3:53 am 03:53 Clear 68 20 32 undefined 26 26 W 6 9 30.02 1017 10 16 N/A
4:53 am 04:53 Clear 67 19.4 33 0.6 28 28 WSW 6 9 30.03 1017 10 16 N/A
5:53 am 05:53 Clear 66 18.9 32 undefined 28 28 NW 5 7 30.05 1018 10 16 N/A
6:53 am 06:53 Sunny 68 20 33 0.6 27 27 WSW 3 6 30.07 1018 10 16 N/A
7:53 am 07:53 Sunny 71 21.7 34 1.1 26 26 N N/A 30.09 1019 10 16 N/A
8:53 am 08:53 Sunny 75 23.9 33 0.6 22 22 N N/A 30.09 1019 10 16 N/A
9:53 am 09:53 Sunny 79 26.1 31 -0.6 17 17 N N/A 30.09 1019 10 16 N/A
10:53 am 10:53 Sunny 83 28.3 31 -0.6 15 15 N N/A 30.09 1019 10 16 N/A
11:53 am 11:53 Sunny 85 29.4 31 -0.6 14 14 VRB 5 7 30.06 1018 10 16 N/A
12:53 pm 12:53 Sunny 87 30.6 30 -1.1 13 13 ESE 8 13 30.04 1017 10 16 N/A
1:53 pm 13:53 Sunny 88 31.1 30 -1.1 12 12 SSE 7 11 30.01 1016 10 16 N/A
2:53 pm 14:53 Sunny 88 31.1 30 -1.1 12 12 undefined N/A 29.98 1015 10 16 N/A
3:53 pm 15:53 Sunny 90 32.2 31 -0.6 12 12 E 6 9 29.95 1014 10 16 N/A
4:53 pm 16:53 Sunny 91 32.8 30 -1.1 11 11 E 9 15 29.93 1014 10 16 N/A
5:53 pm 17:53 Sunny 90 32.2 30 -1.1 12 12 ENE 7 11 29.91 1013 10 16 N/A
6:53 pm 18:53 Sunny 88 31.1 30 -1.1 12 12 E 6 9 29.91 1013 10 16 N/A
7:53 pm 19:53 Clear 84 28.9 31 -0.6 15 15 E 7 11 29.91 1013 10 16 N/A
8:53 pm 20:53 Clear 84 28.9 31 -0.6 15 15 E 5 7 29.93 1013 10 16 N/A
9:53 pm 21:53 Clear 81 27.2 33 0.6 18 18 NW 5 7 29.94 1014 10 16 N/A
10:53 pm 22:53 Clear 79 26.1 37 2.8 22 22 W 5 7 29.93 1014 10 16 N/A
11:53 pm 23:53 Clear 78 25.6 37 2.8 23 23 WNW 5 7 29.91 1013 10 16 N/A

Powered by AerisWeather